[[{"header":{"parameterUnit":"m.s-1","parameterCategory":1,"la1":30.2991,"la2":30.254,"lo1":-89.0895,"lo2":-89.0444,"dy":0.0017,"dx":0.0017,"nx":28,"ny":28,"refTime":"2025-04-29T03:00:00:Z","depth":0,"parameterNumber":2,"parameterNumberName":"U-component_of_WINDS"},"data":[0,0,0,0,0,0,0,0,0,0,0,0,0,0,0,0,0,0,0,0,0,0,0,0,0,0,0,0,0,0,0,0,0,0,0,0,0,0,0,0,0,0,0,0,0,0,0,0,0,0,0,0,0,0,0,0,0,0,-2.3762,-2.3763,0,-2.384,-2.384,-2.3841,-2.3839,-2.3838,-2.3837,-2.3836,-2.3914,-2.3917,-2.392,0,0,0,0,0,0,0,0,0,0,0,0,0,-2.3613,-2.3616,-2.3762,-2.3763,-2.3764,-2.3839,-2.384,-2.3841,-2.384,-2.3838,-2.3837,-2.3836,-2.3913,-2.3917,-2.3921,0,0,0,0,0,0,0,0,0,0,0,0,0,-2.3683,-2.3617,-2.3762,-2.3772,-2.3774,-2.3839,-2.384,-2.3842,-2.384,-2.3838,-2.3837,-2.3835,-2.3912,-2.3917,-2.3921,-2.3981,0,0,-2.3935,-2.3937,0,0,0,0,0,0,0,0,-2.3679,-2.3688,-2.377,-2.3772,-2.3774,-2.3828,-2.3816,-2.3888,-2.384,-2.3815,-2.3836,-2.3834,-2.3887,-2.3894,-2.3911,-2.3985,-2.3988,-2.3936,-2.3938,-2.394,-2.3942,0,0,0,0,0,0,0,-2.3674,-2.3685,-2.3793,-2.3771,-2.3774,-2.3773,-2.3781,-2.383,-2.3859,-2.3817,-2.3817,-2.3826,-2.3888,-2.3907,-2.3913,-2.3989,-2.3936,-2.394,-2.3942,-2.3944,-2.4115,-2.4117,0,0,0,0,0,0,-2.3667,-2.3681,-2.379,-2.3795,-2.3721,-2.3777,-2.3786,-2.3812,-2.3858,-2.3864,-2.3827,-2.3826,-2.39,-2.3908,-2.3916,-2.3989,-2.394,-2.3945,-2.3947,-2.4113,-2.4116,-2.4117,0,0,0,0,0,0,-2.3664,-2.3677,-2.3787,-2.3738,-2.3752,-2.3781,-2.3811,-2.3815,-2.3834,-2.3866,-2.3871,-2.3842,-2.3899,-2.391,-2.3965,-2.3992,-2.3947,-2.3951,-2.4111,-2.4114,-2.4116,-2.4135,0,0,0,0,0,0,-2.366,-2.3676,-2.3699,-2.3739,-2.3755,-2.3835,-2.3812,-2.3817,-2.3842,-2.3841,-2.3881,-2.3886,-2.3899,-2.3958,-2.3969,-2.3997,-2.3955,-2.4109,-2.4112,-2.4116,-2.4132,-2.4138,-2.4143,0,0,0,0,0,-2.3654,-2.3701,-2.37,-2.3713,-2.3784,-2.3837,-2.3846,-2.3859,-2.3844,-2.3868,-2.3888,-2.3885,-2.3987,-2.3964,-2.3977,-2.4006,-2.4107,-2.4111,-2.4115,-2.413,-2.4137,-2.4143,0,0,0,0,0,0,-2.3663,-2.3706,-2.3706,-2.3767,-2.3798,-2.3836,-2.3866,-2.3866,-2.3903,-2.39,-2.3915,-2.3924,-2.3979,-2.3998,-2.3972,-2.4066,-2.4045,-2.4052,-2.4052,-2.4059,-2.4064,-2.4058,-2.3958,0,0,0,0,0,-2.3672,-2.3711,-2.3747,-2.3797,-2.3813,-2.3837,-2.386,-2.3868,-2.3901,-2.3914,-2.3939,-2.3971,-2.401,-2.4035,-2.4073,-2.4135,-2.4144,-2.4161,-2.4167,-2.4171,-2.4177,-2.4211,-2.4219,-2.4131,-2.4131,-2.4131,0,0,-2.3691,-2.372,-2.3743,-2.38,-2.3825,-2.3865,-2.3848,-2.3891,-2.3921,-2.3921,-2.3974,-2.3994,-2.403,-2.4089,-2.4116,-2.4106,-2.4203,-2.4176,-2.418,-2.4183,-2.4216,-2.4224,-2.4231,-2.4133,-2.4133,-2.4132,0,0,-2.3747,-2.3772,-2.3817,-2.3842,-2.3881,-2.3896,-2.3907,-2.3946,-2.3958,-2.4013,-2.4013,-2.4049,-2.4116,-2.4142,-2.4164,-2.4229,-2.4228,-2.4241,-2.4269,-2.4302,-2.4309,-2.4315,-2.4338,-2.4347,-2.4247,-2.4247,-2.4247,0,-2.3765,-2.3826,-2.384,-2.3883,-2.3907,-2.3909,-2.3955,-2.3979,-2.4028,-2.4044,-2.4033,-2.4118,-2.4142,-2.4207,-2.4223,-2.4241,-2.4253,-2.4237,-2.4307,-2.4314,-2.432,-2.4342,-2.435,-2.4248,-2.4248,-2.4248,-2.4248,0,-2.3847,-2.3889,-2.392,-2.3967,-2.3996,-2.404,-2.406,-2.4087,-2.4092,-2.4109,-2.4164,-2.4194,-2.4238,-2.4254,-2.4259,-2.432,-2.4312,-2.4304,-2.4283,-2.4329,-2.435,-2.4359,-2.425,-2.425,-2.4249,-2.4249,0,0,-2.391,-2.3964,-2.3975,-2.3997,-2.4039,-2.4072,-2.4116,-2.4159,-2.4182,-2.4215,-2.4252,-2.4309,-2.4302,-2.4327,-2.4336,-2.4364,-2.4414,-2.4353,-2.4354,-2.4363,-2.4482,-2.4487,-2.4497,-2.4413,-2.4415,-2.4416,-2.4478,0,-2.3969,-2.4047,-2.4061,-2.4129,-2.4168,-2.4171,-2.4209,-2.4239,-2.4256,-2.4291,-2.431,-2.435,-2.4337,-2.4352,-2.4381,-2.4402,-2.4438,-2.4398,-2.4448,-2.4449,-2.4438,-2.4508,-2.4514,-2.4571,-2.4487,-2.4488,-2.4489,0,-2.4049,-2.4085,-2.4157,-2.4194,-2.4211,-2.4245,-2.4286,-2.4319,-2.4354,-2.4364,-2.4392,-2.4397,-2.4443,-2.442,-2.4483,-2.4455,-2.4477,-2.449,-2.4493,-2.4497,-2.4472,-2.4514,-2.459,-2.4598,-2.4502,-2.4501,-2.45,0,-2.4087,-2.4153,-2.4205,-2.4223,-2.4268,-2.4292,-2.4312,-2.4345,-2.437,-2.4405,-2.4421,-2.4462,-2.4484,-2.4515,-2.4531,-2.4513,-2.4592,-2.4571,-2.4602,-2.4601,-2.4618,-2.4617,-2.4698,-2.4633,-2.4632,-2.4632,-2.4632,0,-2.4152,-2.4196,-2.4223,-2.4254,-2.4304,-2.4319,-2.4367,-2.4387,-2.4416,-2.4451,-2.4456,-2.4489,-2.4508,-2.4544,-2.4557,-2.4607,-2.4617,-2.4626,-2.4629,-2.4626,-2.4624,-2.464,-2.4636,-2.4635,-2.4634,-2.4634,-2.4633,0,-2.4203,-2.4222,-2.4279,-2.4317,-2.4327,-2.4362,-2.4394,-2.4425,-2.4442,-2.4487,-2.4498,-2.4525,-2.4567,-2.4586,-2.4639,-2.4647,-2.4704,-2.4704,-2.4693,-2.4694,-2.4723,-2.472,-2.4816,-2.483,-2.4756,-2.4756,-2.4757,0,-2.4243,-2.4276,-2.4318,-2.4342,-2.4362,-2.4401,-2.4427,-2.4443,-2.4469,-2.4511,-2.4537,-2.458,-2.4615,-2.4682,-2.4706,-2.4746,-2.4747,-2.4778,-2.4753,-2.4749,-2.4747,-2.4745,-2.4748,-2.4783,-2.4783,-2.4784,-2.4784,0,-2.4311,-2.4319,-2.4356,-2.4396,-2.4426,-2.4459,-2.4491,-2.451,-2.4531,-2.4561,-2.4604,-2.4632,-2.4685,-2.4727,-2.4769,-2.4789,-2.4791,-2.4792,-2.4801,-2.4798,-2.479,-2.4794,-2.4705,-2.479,-2.4789,-2.4789,-2.4789,-2.4788,-2.4358,-2.4388,-2.4422,-2.4462,-2.4488,-2.4517,-2.4548,-2.4569,-2.4606,-2.465,-2.4658,-2.4704,-2.4738,-2.4794,-2.4815,-2.4852,-2.4844,-2.4858,-2.4861,-2.4864,-2.4865,-2.4784,-2.486,-2.4859,-2.4859,-2.4859,-2.4859,0,-2.4426,-2.4448,-2.4485,-2.453,-2.4562,-2.456,-2.4595,-2.4622,-2.4663,-2.4694,-2.4728,-2.4778,-2.4819,-2.4846,-2.4887,-2.4911,-2.4913,-2.4922,-2.492,-2.4924,-2.487,-2.4858,-2.492,-2.492,-2.492,-2.492,-2.492,-2.492,-2.4466,-2.4517,-2.4529,-2.4592,-2.4614,-2.4659,-2.4679,-2.4706,-2.4731,-2.4787,-2.4821,-2.4838,-2.4868,-2.4911,-2.4949,-2.4956,-2.4971,-2.498,-2.4986,-2.4935,-2.4928,-2.4922,-2.4911,-2.4983,-2.4983,-2.5037,-2.5038,-2.5038]},{"header":{"parameterUnit":"m.s-1","parameterCategory":1,"la1":30.2991,"la2":30.254,"lo1":-89.0895,"lo2":-89.0444,"dy":0.0017,"dx":0.0017,"nx":28,"ny":28,"refTime":"2025-04-29T03:00:00:Z","depth":0,"parameterNumber":3,"parameterNumberName":"V-component_of_WINDS"},"data":[0,0,0,0,0,0,0,0,0,0,0,0,0,0,0,0,0,0,0,0,0,0,0,0,0,0,0,0,0,0,0,0,0,0,0,0,0,0,0,0,0,0,0,0,0,0,0,0,0,0,0,0,0,0,0,0,0,0,3.7352,3.7352,0,3.736,3.736,3.736,3.7315,3.7313,3.7312,3.7311,3.7318,3.7319,3.7321,0,0,0,0,0,0,0,0,0,0,0,0,0,3.7297,3.7298,3.7352,3.7352,3.7352,3.736,3.736,3.736,3.7315,3.7313,3.7312,3.731,3.7318,3.7319,3.7321,0,0,0,0,0,0,0,0,0,0,0,0,0,3.7314,3.7298,3.7352,3.7331,3.7329,3.7359,3.736,3.736,3.7315,3.7313,3.7311,3.731,3.7317,3.7319,3.7321,3.7372,0,0,3.7328,3.7328,0,0,0,0,0,0,0,0,3.7313,3.7316,3.7334,3.7332,3.733,3.7334,3.7343,3.7364,3.7316,3.732,3.7311,3.7309,3.7325,3.7326,3.7332,3.7373,3.7373,3.7328,3.7329,3.733,3.733,0,0,0,0,0,0,0,3.7312,3.7316,3.7355,3.7334,3.7332,3.732,3.732,3.7347,3.7333,3.732,3.7317,3.7318,3.7324,3.733,3.7332,3.7373,3.7328,3.733,3.7331,3.7332,3.7454,3.7456,0,0,0,0,0,0,3.7314,3.7315,3.7355,3.7355,3.7317,3.7323,3.7323,3.7335,3.7333,3.7331,3.732,3.7316,3.7327,3.7329,3.7332,3.739,3.733,3.7332,3.7333,3.7452,3.7455,3.7457,0,0,0,0,0,0,3.7313,3.7318,3.7354,3.7334,3.7338,3.7326,3.7339,3.7336,3.7342,3.7333,3.733,3.7329,3.7326,3.7329,3.7362,3.739,3.7333,3.7335,3.745,3.7453,3.7456,3.7509,0,0,0,0,0,0,3.7312,3.7318,3.7338,3.7335,3.7339,3.7385,3.7341,3.7338,3.7346,3.7341,3.7341,3.7339,3.7325,3.7359,3.7364,3.7392,3.7336,3.7447,3.7451,3.7455,3.7504,3.7513,3.752,0,0,0,0,0,3.731,3.7353,3.7339,3.7344,3.7364,3.7387,3.7389,3.7373,3.7349,3.7368,3.7362,3.7339,3.7386,3.7363,3.7368,3.7397,3.7445,3.745,3.7455,3.7501,3.7511,3.752,0,0,0,0,0,0,3.736,3.7352,3.7337,3.738,3.7385,3.738,3.7404,3.7385,3.7396,3.7391,3.7369,3.737,3.7406,3.7405,3.7379,3.7445,3.7412,3.7417,3.7445,3.7455,3.7463,3.7462,3.7338,0,0,0,0,0,3.7376,3.7396,3.7388,3.7427,3.743,3.7416,3.7426,3.7412,3.7416,3.7418,3.7414,3.7418,3.7433,3.7444,3.7458,3.7504,3.7502,3.7526,3.7534,3.7541,3.7546,3.7568,3.7578,3.7472,3.7472,3.7472,0,0,3.7409,3.7407,3.7422,3.7437,3.7439,3.7459,3.7418,3.7442,3.7456,3.7421,3.7452,3.7449,3.7452,3.7491,3.7509,3.7491,3.7575,3.7546,3.7552,3.7553,3.7574,3.7584,3.7593,3.7475,3.7474,3.7474,0,0,3.748,3.7482,3.7513,3.7515,3.7518,3.7509,3.7516,3.7514,3.751,3.7541,3.7514,3.7531,3.7559,3.7561,3.7566,3.7636,3.7615,3.7641,3.7684,3.7706,3.7714,3.7721,3.7745,3.7754,3.7647,3.7647,3.7647,0,3.7522,3.7551,3.7532,3.7557,3.7564,3.7532,3.7563,3.7566,3.7574,3.7579,3.7559,3.7592,3.7592,3.7631,3.7648,3.7653,3.766,3.7641,3.7715,3.7722,3.7728,3.775,3.776,3.765,3.765,3.7649,3.7649,0,3.7601,3.7622,3.7647,3.7654,3.7664,3.7692,3.7676,3.7688,3.7673,3.7665,3.7696,3.7694,3.7707,3.7715,3.7701,3.7751,3.774,3.7718,3.7684,3.7742,3.7762,3.7771,3.7654,3.7653,3.7652,3.7652,0,0,3.7705,3.7699,3.7709,3.7711,3.7711,3.7726,3.7752,3.7764,3.7774,3.7779,3.78,3.7823,3.7802,3.7808,3.7794,3.7813,3.7867,3.7788,3.7788,3.7802,3.792,3.7936,3.7947,3.7853,3.7855,3.7856,3.792,0,3.7773,3.7817,3.7799,3.7844,3.7862,3.7832,3.7854,3.7856,3.7849,3.7863,3.7855,3.7871,3.7843,3.7846,3.7864,3.7857,3.789,3.7852,3.7871,3.7872,3.787,3.7958,3.7975,3.8036,3.7928,3.7929,3.793,0,3.7859,3.7867,3.7914,3.7908,3.7915,3.7936,3.7944,3.7958,3.7959,3.7952,3.7958,3.7939,3.7963,3.7929,3.7961,3.7935,3.7942,3.7939,3.7941,3.7942,3.7904,3.796,3.8055,3.8063,3.7943,3.7942,3.7941,0,3.7928,3.7951,3.7981,3.7984,3.7979,3.7994,3.7992,3.7991,3.7999,3.8006,3.801,3.8021,3.8026,3.8034,3.8018,3.7995,3.8052,3.8017,3.8046,3.8047,3.8059,3.8059,3.8156,3.8065,3.8065,3.8065,3.8065,0,3.8006,3.8036,3.8012,3.8031,3.8062,3.8041,3.8073,3.8068,3.8067,3.8084,3.8058,3.8074,3.8052,3.8066,3.8054,3.8081,3.8084,3.8079,3.8075,3.8081,3.8081,3.8085,3.808,3.8067,3.8067,3.8066,3.8066,0,3.8089,3.8075,3.8105,3.8098,3.8096,3.812,3.8112,3.8129,3.812,3.8141,3.8144,3.813,3.8145,3.8129,3.8143,3.8135,3.8172,3.8162,3.8171,3.8168,3.8198,3.8195,3.83,3.8312,3.8215,3.8216,3.8217,0,3.814,3.8161,3.8155,3.8164,3.8164,3.8179,3.8186,3.8165,3.8174,3.8175,3.8191,3.8204,3.8212,3.8237,3.8228,3.8238,3.8228,3.8264,3.8229,3.8233,3.8227,3.8225,3.8227,3.8271,3.8272,3.8273,3.8273,0,3.823,3.8221,3.8232,3.824,3.8249,3.8255,3.8258,3.8267,3.8246,3.8256,3.827,3.8277,3.829,3.8302,3.831,3.8308,3.8287,3.8284,3.8292,3.8297,3.8301,3.8298,3.819,3.8282,3.8281,3.8281,3.828,3.828,3.8297,3.8314,3.8312,3.8324,3.8324,3.8328,3.8342,3.8334,3.8346,3.8354,3.8342,3.8359,3.8358,3.8365,3.8365,3.8378,3.8363,3.8374,3.8376,3.8379,3.8383,3.83,3.838,3.8379,3.8379,3.8379,3.8379,0,3.8385,3.8381,3.8393,3.8398,3.8408,3.8387,3.8389,3.8398,3.8414,3.8414,3.8423,3.8438,3.8449,3.8441,3.845,3.8462,3.8452,3.8465,3.8463,3.8463,3.8397,3.8389,3.8472,3.8472,3.8472,3.8472,3.8472,3.8472,3.8432,3.8459,3.8449,3.8476,3.8472,3.8488,3.8491,3.8494,3.8494,3.8512,3.8521,3.8514,3.8511,3.8519,3.8528,3.8525,3.8529,3.8545,3.8539,3.8477,3.8468,3.8459,3.8452,3.8546,3.8546,3.8604,3.8604,3.8605]}]]